CW8614 Weather Reports


time (UTC)temp
F
wind
direction
speed
knots
gust
knots
rain 1hr
in
rain 24hr
in
rain mn
in
humidity
%
barometer
mb
20260504214017 75 252 3.5 12.2 0.00 0.00 0.00 32 1003.8
20260504213017 75 282 2.6 9.6 0.00 0.00 0.00 33 1003.7
20260504212037 75 278 4.3 9.6 0.00 0.00 0.00 33 1003.7
20260504211017 75 284 4.3 12.2 0.00 0.00 0.00 34 1003.8
20260504210017 75 279 4.3 11.3 0.00 0.00 0.00 33 1003.9
20260504205017 75 248 2.6 9.6 0.00 0.00 0.00 34 1003.9
20260504204017 75 269 4.3 13.0 0.00 0.00 0.00 35 1004.1
20260504203037 74 259 3.5 9.6 0.00 0.00 0.00 36 1004.1
20260504202017 73 264 4.3 13.0 0.00 0.00 0.00 36 1004.3
20260504201017 74 285 5.2 10.4 0.00 0.00 0.00 37 1004.5
20260504200017 73 254 4.3 10.4 0.00 0.00 0.00 37 1004.6
20260504195017 72 287 3.5 10.4 0.00 0.00 0.00 40 1004.7
20260504194017 72 235 4.3 11.3 0.00 0.00 0.00 39 1004.8
20260504193017 72 284 3.5 13.0 0.00 0.00 0.00 40 1005.0
20260504192017 73 274 2.6 12.2 0.00 0.00 0.00 40 1005.0
20260504191017 72 260 4.3 10.4 0.00 0.00 0.00 41 1005.2
20260504190017 72 255 6.1 12.2 0.00 0.00 0.00 40 1005.3
20260504185017 72 265 6.1 13.9 0.00 0.00 0.00 41 1005.3
20260504184017 71 290 5.2 12.2 0.00 0.00 0.00 43 1005.3
20260504183017 71 284 4.3 11.3 0.00 0.00 0.00 43 1005.5
20260504182037 71 256 4.3 10.4 0.00 0.00 0.00 42 1005.6
20260504181017 70 278 5.2 12.2 0.00 0.00 0.00 43 1005.7
20260504180017 70 270 6.1 13.9 0.00 0.00 0.00 43 1005.7
20260504175017 70 263 3.5 10.4 0.00 0.00 0.00 44 1005.8
20260504174037 70 306 5.2 14.8 0.00 0.00 0.00 45 1005.8
20260504173017 70 276 5.2 11.3 0.00 0.00 0.00 44 1005.8
20260504172017 69 291 4.3 14.8 0.00 0.00 0.00 45 1005.9
20260504171017 69 262 4.3 13.0 0.00 0.00 0.00 46 1005.9
20260504151016 63 253 4.3 10.4 0.00 0.00 0.00 47 1007.3
20260504141017 61 254 1.7 11.3 0.00 0.00 0.00 50 1007.4
20260504081017 53 256 1.7 6.1 0.00 0.00 0.00 53 1008.2
20260504050017 48 0.0 0.0 0.00 0.00 0.00 88 1009.0
20260504045017 48 0.0 0.0 0.00 0.00 0.00 87 1009.0
20260504044036 48 0.0 0.0 0.00 0.00 0.00 87 1009.0
20260504043017 48 0.0 0.0 0.00 0.00 0.00 86 1009.0
20260504042017 48 0.0 0.0 0.00 0.00 0.00 86 1009.0
20260504041017 48 0.0 0.0 0.00 0.00 0.00 85 1009.1
20260504040057 48 0.0 0.0 0.00 0.00 0.00 85 1009.1
20260504035017 48 0.0 0.0 0.00 0.00 0.00 85 1009.3
20260504034017 48 0.0 0.0 0.00 0.00 0.00 84 1009.3
20260504033017 49 0.0 0.0 0.00 0.00 0.00 82 1009.5
20260504032017 49 0.0 0.0 0.00 0.00 0.00 82 1009.4
20260504031037 50 0.0 0.0 0.00 0.00 0.00 80 1009.4
20260504030036 50 0.0 0.0 0.00 0.00 0.00 78 1009.5
20260504025017 51 0.0 0.0 0.00 0.00 0.00 76 1009.7
20260504024017 51 0.0 1.7 0.00 0.00 0.00 73 1010.0
20260504023017 51 299 0.9 3.5 0.00 0.00 0.00 72 1010.2
20260504022017 51 283 1.7 7.0 0.00 0.00 0.00 72 1010.1
20260504021057 51 307 3.5 9.6 0.00 0.00 0.00 71 1010.3
20260504020017 52 306 5.2 13.9 0.00 0.00 0.00 69 1010.6
20260504015017 53 322 5.2 9.6 0.00 0.00 0.00 65 1010.7
20260504014017 54 319 3.5 7.8 0.00 0.00 0.00 61 1010.5
20260504013017 54 314 4.3 9.6 0.00 0.00 0.00 58 1010.2
20260504012037 54 314 3.5 12.2 0.00 0.00 0.00 58 1010.0
20260504011017 55 318 4.3 11.3 0.00 0.00 0.00 55 1010.0
20260504010017 55 314 5.2 11.3 0.00 0.00 0.00 52 1009.8
20260504005017 54 306 3.5 9.6 0.00 0.00 0.00 51 1009.6
20260504004017 53 0.0 0.9 0.00 0.00 0.00 56 1009.4
20260504003017 54 68 0.0 0.9 0.00 0.00 0.00 53 1009.4
20260504002017 54 0.0 1.7 0.00 0.00 0.00 51 1009.2
20260504001017 54 275 0.9 2.6 0.00 0.00 0.00 51 1009.2
20260504000017 54 282 0.9 5.2 0.00 0.00 0.00 51 1009.0
20260503235037 54 316 3.5 7.8 0.00 0.00 0.00 50 1009.3
20260503234017 54 319 3.5 10.4 0.00 0.00 0.00 51 1009.6
20260503233037 55 312 7.0 14.8 0.00 0.00 0.00 47 1009.8
20260503232017 55 318 3.5 7.0 0.00 0.00 0.00 46 1009.6
20260503231017 55 334 5.2 10.4 0.00 0.00 0.00 44 1009.5
20260503230037 55 304 1.7 7.0 0.00 0.00 0.00 44 1009.4
20260503225017 56 292 2.6 6.1 0.00 0.00 0.00 44 1009.2
20260503224017 56 285 2.6 5.2 0.00 0.00 0.00 43 1009.2
20260503223017 57 309 1.7 4.3 0.00 0.00 0.00 44 1009.1
20260503222037 56 290 1.7 5.2 0.00 0.00 0.00 44 1009.2
20260503221017 56 305 2.6 6.1 0.00 0.00 0.00 43 1009.4
20260503220017 56 295 3.5 7.8 0.00 0.00 0.00 45 1009.4
20260503215017 56 308 3.5 8.7 0.00 0.00 0.00 45 1009.4